Waarnemingen

Advertentie
Mijn weer
Pertusato, Frankrijk (7770): temperatuur & dauwpunt: 13.08.2019 22:00:00 - 19.08.2019 22:00:00 (CEST)Pertusato, Frankrijk (7770): windsnelheid & windstoten: 13.08.2019 22:00:00 - 19.08.2019 22:00:00 (CEST)Pertusato, Frankrijk (7770): windrichting: 13.08.2019 22:00:00 - 19.08.2019 22:00:00 (CEST)Pertusato, Frankrijk (7770): luchtdruk: 13.08.2019 22:00:00 - 19.08.2019 22:00:00 (CEST)Pertusato, Frankrijk (7770): zicht: 13.08.2019 22:00:00 - 19.08.2019 22:00:00 (CEST)Pertusato, Frankrijk (7770): neerslag: 13.08.2019 22:00:00 - 19.08.2019 22:00:00 (CEST)
Datum & Tijd tt [°C] td [°C] ff [km/u] ff [kn] fx [km/u] fx [kn] dd ppp [hPa] vv [km] rr [mm]
19.08.2019 22:00:00 24,0 22,3 14 7 25 13 O 1017,0 - 0,0
19.08.2019 21:00:00 24,2 22,1 12 7 27 15 ONO 1016,7 - 0,0
19.08.2019 20:00:00 25,2 22,1 19 10 35 19 ONO 1016,5 21 0,0
19.08.2019 19:00:00 26,7 22,3 24 13 38 20 O 1016,3 - 0,0
19.08.2019 18:00:00 28,1 22,1 24 13 39 21 O 1015,9 - 0,0
19.08.2019 17:00:00 28,8 21,6 26 14 40 21 O 1016,2 15 0,0
19.08.2019 16:00:00 29,8 21,5 23 12 40 22 O 1016,4 - 0,0
19.08.2019 15:00:00 29,6 21,5 26 14 39 21 O 1016,5 - 0,0
19.08.2019 14:00:00 30,4 22,3 22 12 39 21 O 1016,5 - 0,0
19.08.2019 13:00:00 29,4 21,6 24 13 38 21 O 1016,5 - 0,0
19.08.2019 12:00:00 29,3 21,5 23 12 38 20 O 1016,7 - 0,0
19.08.2019 11:00:00 28,2 21,5 22 12 34 19 O 1016,4 23 0,0
19.08.2019 10:00:00 27,3 21,8 19 10 34 18 O 1016,1 - 0,0
19.08.2019 09:00:00 26,5 21,3 21 11 32 18 O 1015,9 - 0,0
19.08.2019 08:00:00 24,8 21,7 18 10 31 17 O 1015,5 - 0,2
19.08.2019 07:00:00 23,0 21,6 17 9 28 15 ONO 1015,4 - 0,0
19.08.2019 06:00:00 23,0 21,8 18 10 27 15 O 1014,8 - 0,0
19.08.2019 05:00:00 23,0 22,0 14 7 19 11 ONO 1015,2 18 0,0
19.08.2019 04:00:00 23,0 21,6 14 8 24 13 ONO 1015,1 - 0,0
19.08.2019 03:00:00 23,2 21,6 14 8 23 12 O 1015,2 - 0,0
19.08.2019 02:00:00 23,3 21,7 14 8 27 15 ONO 1015,4 - 0,0
19.08.2019 01:00:00 23,4 21,5 19 10 27 15 O 1015,3 - 0,0
19.08.2019 00:00:00 23,5 21,4 16 9 27 15 O 1015,6 - 0,0
18.08.2019 23:00:00 23,8 21,7 18 10 30 16 O 1015,5 - 0,0
18.08.2019 22:00:00 24,0 21,9 18 10 31 17 O 1015,2 - 0,0
18.08.2019 21:00:00 24,2 21,5 19 11 32 18 O 1015,0 - 0,0
18.08.2019 20:00:00 25,1 21,8 20 11 36 19 O 1014,6 23 0,0
18.08.2019 19:00:00 26,5 22,3 23 12 42 23 O 1014,7 - 0,0
18.08.2019 18:00:00 27,4 22,4 26 14 42 23 O 1015,0 - 0,0
18.08.2019 17:00:00 27,9 22,4 26 14 40 22 O 1015,2 - 0,0
18.08.2019 16:00:00 28,1 21,9 27 14 41 22 O 1015,5 - 0,0
18.08.2019 15:00:00 28,9 21,7 25 14 43 23 O 1015,8 - 0,0
18.08.2019 14:00:00 29,1 21,3 23 13 40 22 ONO 1015,8 20 0,0
18.08.2019 13:00:00 29,3 21,0 24 13 40 22 O 1015,9 - 0,0
18.08.2019 12:00:00 28,5 20,8 22 12 36 20 O 1016,2 - 0,0
18.08.2019 11:00:00 27,6 20,7 21 11 35 19 O 1016,3 20 0,0
18.08.2019 10:00:00 27,0 20,3 20 11 33 18 ONO 1016,0 - 0,0
18.08.2019 09:00:00 25,7 20,3 21 11 31 17 O 1015,8 - 0,0
18.08.2019 08:00:00 24,0 20,3 16 9 26 14 O 1015,6 20 0,0
18.08.2019 07:00:00 20,7 18,8 14 8 22 12 ONO 1015,7 - 0,0
18.08.2019 06:00:00 20,7 18,5 16 9 22 12 ONO 1015,6 - 0,0
18.08.2019 05:00:00 20,3 18,1 15 8 20 11 ONO 1015,6 - 0,0
18.08.2019 04:00:00 20,0 16,6 11 6 13 7 ONO 1016,2 - 0,0
18.08.2019 03:00:00 21,2 16,6 5 3 6 4 O 1016,2 - 0,0
18.08.2019 02:00:00 20,9 19,0 5 3 6 3 N 1016,3 - 0,0
18.08.2019 01:00:00 21,8 19,4 6 3 8 4 W 1016,6 - 0,0
18.08.2019 00:00:00 22,3 19,5 4 2 9 5 WZW 1016,6 - 0,0
17.08.2019 23:00:00 22,5 19,5 5 3 10 5 W 1016,6 - 0,0
17.08.2019 22:00:00 23,1 19,9 5 3 10 6 WZW 1016,6 - 0,0
17.08.2019 21:00:00 22,9 19,3 9 5 15 8 W 1016,4 - 0,0
17.08.2019 20:00:00 24,1 19,6 11 6 15 8 W 1016,0 28 0,0
17.08.2019 19:00:00 25,5 19,9 8 5 14 8 W 1016,0 - 0,0
17.08.2019 18:00:00 26,1 20,0 7 4 24 13 W 1016,3 - 0,0
17.08.2019 17:00:00 25,6 20,2 16 9 26 14 W 1016,5 25 0,0
17.08.2019 16:00:00 26,1 20,0 19 10 29 15 W 1016,7 - 0,0
17.08.2019 15:00:00 26,3 19,9 21 11 31 17 W 1016,8 - 0,0
17.08.2019 14:00:00 26,1 20,2 19 10 32 17 W 1017,1 - 0,0
17.08.2019 13:00:00 25,4 19,8 10 6 29 16 W 1017,5 - 0,0
17.08.2019 12:00:00 24,7 20,0 10 5 31 17 WNW 1017,7 - 0,0
17.08.2019 11:00:00 24,4 19,7 10 6 29 16 W 1017,6 25 0,0
17.08.2019 10:00:00 24,0 19,7 9 5 31 17 NW 1017,5 - 0,0
17.08.2019 09:00:00 23,8 19,9 10 6 35 19 WNW 1017,1 - 0,0
17.08.2019 08:00:00 23,0 19,8 11 6 24 13 W 1016,8 23 0,0
17.08.2019 07:00:00 22,3 19,8 20 11 30 16 W 1016,6 - 0,0
17.08.2019 06:00:00 22,4 19,9 22 12 36 20 W 1016,2 - 0,0
17.08.2019 05:00:00 22,5 19,9 22 12 39 21 W 1015,8 - 0,0
17.08.2019 04:00:00 22,6 20,1 23 12 43 23 W 1016,0 - 0,0
17.08.2019 03:00:00 22,6 19,9 18 10 41 22 W 1015,8 - 0,0
17.08.2019 02:00:00 22,6 19,6 16 8 43 23 WNW 1016,1 10 0,0
17.08.2019 01:00:00 22,7 19,9 15 8 49 26 WNW 1016,2 - 0,0
17.08.2019 00:00:00 22,8 20,0 15 8 45 24 WNW 1016,2 - 0,0
16.08.2019 23:00:00 22,9 19,9 16 9 50 27 WNW 1016,1 - 0,0
16.08.2019 22:00:00 22,8 19,0 24 13 50 27 W 1015,8 - 0,0
16.08.2019 21:00:00 23,0 19,2 31 17 55 30 W 1015,3 - 0,0
16.08.2019 20:00:00 23,3 18,2 34 19 66 35 W 1014,4 23 0,0
16.08.2019 19:00:00 24,0 18,6 36 19 57 31 W 1014,3 - 0,0
16.08.2019 18:00:00 24,5 18,4 37 20 55 30 W 1014,5 - 0,0
16.08.2019 17:00:00 24,7 18,6 34 19 49 27 W 1014,4 20 0,0
16.08.2019 16:00:00 24,9 18,3 23 12 48 26 W 1014,7 - 0,0
16.08.2019 15:00:00 24,9 18,3 18 10 40 22 W 1015,2 - 0,0
16.08.2019 14:00:00 24,9 17,6 14 8 36 20 W 1015,7 - 0,0
16.08.2019 13:00:00 24,9 17,9 13 7 36 20 W 1015,9 - 0,0
16.08.2019 12:00:00 24,9 18,6 12 6 34 18 W 1016,2 - 0,0
16.08.2019 11:00:00 24,9 19,0 14 8 35 19 W 1016,0 20 0,0
16.08.2019 10:00:00 25,1 20,4 19 11 32 17 W 1015,5 - 0,0
16.08.2019 09:00:00 24,1 20,2 23 13 33 18 W 1015,1 - 0,0
16.08.2019 08:00:00 23,1 19,5 28 15 37 20 W 1014,4 18 0,0
16.08.2019 07:00:00 22,5 19,3 20 11 32 17 W 1014,7 - 0,0
16.08.2019 06:00:00 22,4 19,2 22 12 32 17 W 1014,3 - 0,0
16.08.2019 05:00:00 22,4 19,2 23 13 34 18 W 1014,1 15 0,0
16.08.2019 04:00:00 22,3 19,1 22 12 32 17 W 1014,4 - 0,0
16.08.2019 03:00:00 22,2 19,2 22 12 52 28 W 1014,7 - 0,0
16.08.2019 02:00:00 23,0 19,2 40 21 60 33 W 1014,3 - 0,0
16.08.2019 01:00:00 22,5 19,7 41 22 55 30 W 1014,6 - 0,0
16.08.2019 00:00:00 22,6 19,4 28 15 49 26 W 1015,2 - 0,0
15.08.2019 23:00:00 22,9 19,9 41 22 53 28 W 1015,3 - 0,0
15.08.2019 22:00:00 23,1 19,3 37 20 64 34 W 1015,6 - 0,0
15.08.2019 21:00:00 23,3 18,8 43 23 61 33 W 1014,8 - 0,0
15.08.2019 20:00:00 23,8 19,5 44 24 59 32 W 1014,4 - 0,0
15.08.2019 19:00:00 24,2 18,8 37 20 54 29 W 1014,4 - 0,0
15.08.2019 18:00:00 24,4 18,1 37 20 58 31 W 1014,5 - 0,0
15.08.2019 17:00:00 25,1 19,7 40 22 61 33 W 1014,7 - 0,0
15.08.2019 16:00:00 25,0 18,2 45 24 66 36 W 1014,4 - 0,0
15.08.2019 15:00:00 25,3 20,5 34 18 54 29 W 1015,1 - 0,0
15.08.2019 14:00:00 25,4 20,0 34 18 47 25 W 1015,4 20 0,0
15.08.2019 13:00:00 24,7 19,5 16 9 42 23 W 1015,8 - 0,0
15.08.2019 12:00:00 24,4 19,0 14 7 35 19 W 1016,1 - 0,0
15.08.2019 11:00:00 24,2 19,3 11 6 42 23 WNW 1016,4 21 0,0
15.08.2019 10:00:00 24,2 18,8 13 7 25 14 W 1016,3 - 0,0
15.08.2019 09:00:00 23,9 17,9 15 8 20 11 W 1016,3 - 0,0
15.08.2019 08:00:00 22,7 17,4 14 8 21 11 W 1016,1 - 0,0
15.08.2019 07:00:00 21,2 17,0 14 8 26 14 WNW 1015,8 - 0,0
15.08.2019 06:00:00 21,0 16,6 17 9 29 16 WNW 1015,7 - 0,0
15.08.2019 05:00:00 21,3 17,1 21 12 37 20 W 1015,5 - 0,0
15.08.2019 04:00:00 21,0 17,2 22 12 44 24 W 1015,4 - 0,0
15.08.2019 03:00:00 21,2 17,4 31 17 60 33 W 1015,4 - 0,0
15.08.2019 02:00:00 22,2 17,6 37 20 63 34 W 1014,9 - 0,0
15.08.2019 01:00:00 22,0 17,4 37 20 53 29 W 1015,7 - 0,0
15.08.2019 00:00:00 22,1 17,9 39 21 57 31 W 1015,2 - 0,0
14.08.2019 23:00:00 22,0 17,1 41 22 58 32 W 1015,0 - 0,0
14.08.2019 22:00:00 22,1 17,0 40 22 56 30 W 1014,8 - 0,0
14.08.2019 21:00:00 22,1 16,6 41 22 57 31 W 1014,4 - 0,0
14.08.2019 20:00:00 22,3 16,8 39 21 69 37 W 1013,8 20 0,0
14.08.2019 19:00:00 22,7 16,7 42 23 75 41 W 1013,2 - 0,0
14.08.2019 18:00:00 23,1 17,1 40 22 72 39 W 1013,5 - 0,0
14.08.2019 17:00:00 23,1 16,9 46 25 62 33 W 1013,2 20 0,0
14.08.2019 16:00:00 23,6 17,1 44 24 70 38 W 1013,7 - 0,0
14.08.2019 15:00:00 23,2 17,4 43 23 71 39 W 1013,6 - 0,0
14.08.2019 14:00:00 23,6 16,6 49 26 68 37 W 1013,4 - 0,0
14.08.2019 13:00:00 23,4 16,9 40 22 70 38 W 1013,7 - 0,0
14.08.2019 12:00:00 23,7 16,7 46 25 73 39 W 1013,7 - 0,0
14.08.2019 11:00:00 23,5 17,5 49 26 74 40 W 1013,5 - 0,0
14.08.2019 10:00:00 23,2 16,5 49 27 74 40 W 1012,9 - 0,0
14.08.2019 09:00:00 22,9 17,1 31 17 64 35 W 1012,9 - 0,0
14.08.2019 08:00:00 22,8 16,3 40 21 73 40 W 1012,4 17 0,0
14.08.2019 07:00:00 22,6 16,6 49 26 70 38 W 1011,6 - 0,0
14.08.2019 06:00:00 22,8 15,4 48 26 69 37 W 1011,3 - 0,0
14.08.2019 05:00:00 23,1 16,4 45 24 77 42 W 1011,2 - 0,0
14.08.2019 04:00:00 23,2 15,8 45 24 74 40 W 1011,5 - 0,0
14.08.2019 03:00:00 23,4 16,7 54 29 80 43 W 1011,3 - 0,0
14.08.2019 02:00:00 23,1 16,2 54 29 80 43 W 1011,4 - 0,0
14.08.2019 01:00:00 23,1 16,9 56 30 81 44 W 1011,5 - 0,0
14.08.2019 00:00:00 22,8 16,3 55 30 85 46 W 1011,6 - 0,0
13.08.2019 23:00:00 22,5 16,3 51 28 76 41 W 1011,7 23 0,0
13.08.2019 22:00:00 22,5 17,2 55 30 76 41 W 1011,8 - 0,0

tt = temperatuur
td = dauwpunt
ff = windsnelheid
fx = windstoten
dd = windrichting
ppp = luchtdruk
vv = zicht
rr = neerslag

Weerstations in de omgeving